Simultaneous Nadir Overpasses (SNOs) Predictions

Prediction of SNOs between LANDSAT-8 and METOP-A Satellite Orbit:

Table of predicted SNOs for the next 14.0 days since TLE Epoch: 5/11/2019
Index Date (LANDSAT-8) Time (LANDSAT-8) Lat,Lon (LANDSAT-8) SZA (LANDSAT-8 ) Date (METOP-A) Time (METOP-A) Lat,Lon (METOP-A) SZA (METOP-A ) Distance(km) Time Diff (sec)
1 05/11/2019 05:21:10 -81.10, -40.66 114.50 05/11/2019 05:19:56 -81.38, -41.38 114.40 33.38 74
2 05/11/2019 06:10:18 81.47, 133.88 66.50 05/11/2019 06:10:16 81.47, 134.06 66.52 2.98 2
3 05/11/2019 06:59:45 -81.47, -58.52 113.52 05/11/2019 07:00:57 -81.47, -58.63 113.50 1.89 72
4 05/14/2019 01:44:36 81.47,-159.75 65.79 05/14/2019 01:44:30 81.47,-159.84 65.78 1.46 6
5 05/14/2019 02:34:03 -81.47, 7.88 114.22 05/14/2019 02:35:10 -81.47, 7.89 114.19 0.25 67
6 05/16/2019 21:18:54 81.47, -93.25 65.14 05/16/2019 21:18:43 81.47, -93.34 65.13 1.57 11
7 05/16/2019 22:08:21 -81.47, 74.41 114.87 05/16/2019 22:09:23 -81.47, 74.41 114.84 0.69 62
8 05/19/2019 16:53:12 81.46, -27.02 64.50 05/19/2019 16:52:55 81.47, -26.85 64.51 2.79 17
9 05/19/2019 17:42:39 -81.47, 140.67 115.51 05/19/2019 17:43:36 -81.47, 140.51 115.50 2.78 57
10 05/22/2019 12:27:31 81.46, 39.34 63.91 05/22/2019 12:27:09 81.47, 39.23 63.89 2.04 22




NCC Satellite Simultaneous Nadir Overpasses (SNOs) Prediction Service
